Home > Time Zones > World Clock > Weather > China > Hefei > Past weeks

Flag for China Weather past 2 weeks in Hefei, Anhui, China

Now
77 °F

Fog.


Feels Like: 79 °F
Forecast: 68 / 78 °F
Wind: 3 mph from Southeast

Location: Hefei Airport

Current Time: Jul 4, 2015 at 7:09:23 PM

Latest Report: Jul 4, 2015 at 6:00 PM


Visibility: 3 mi

Pressure: 29.77 "Hg

Humidity: 74%

Dew point: 68 °F

Location of HefeiLocation

Historic Weather in Hefei — Graph

°F

Hefei temperature yesterday

Maximum temperature yesterday: 82 °F (at 10:00 AM)
Minimum temperature yesterday: 73 °F (at 5:00 AM)
Average temperature yesterday: 79 °F

Past Weeks' High & Low Weather Summary

 TemperatureHumidityPressure
High90 °F (Jun 29, 3:00 PM)100% (Jun 22, 5:00 AM)29.83 "Hg (Jun 22, 5:00 AM)
Low68 °F (Jun 22, 5:00 AM)55% (Jul 2, 4:00 PM)29.50 "Hg (Jun 25, 3:00 AM)
Average76 °F88%29.65 "Hg
* Reported Jun 19 5:00 PM — Jul 4 5:00 PM, Hefei, Weather by CustomWeather, © 2015

Note: Actual official high and low records may vary slightly from our data, if they occured in-between our weather recording intervals... More about our weather records

Advertising

Hefei weather history for previous 24 hours

 ConditionsComfort  
Time TempWeatherWind HumidityBarometerVisibility
5:00 PM
Sat, Jul 4
79 °FPassing clouds.6 mph70%29.77 "Hg4 mi
4:00 PM79 °FPassing clouds.8 mph65%29.77 "Hg4 mi
3:00 PM79 °FScattered clouds.6 mph70%29.77 "Hg4 mi
2:00 PM81 °FPartly sunny.8 mph62%29.77 "Hg4 mi
1:00 PM81 °FHaze.6 mph66%29.77 "Hg3 mi
12:00 PM79 °FHaze.6 mph70%29.77 "Hg2 mi
11:00 AM79 °FScattered clouds.8 mph74%29.80 "Hg2 mi
10:00 AM77 °FFog.6 mph83%29.80 "Hg2 mi
9:00 AM75 °FFog.3 mph89%29.80 "Hg2 mi
8:00 AM75 °FFog.1 mph83%29.80 "Hg1 mi
7:00 AM72 °FFog.3 mph94%29.80 "Hg1 mi
6:00 AM72 °FFog.3 mph94%29.77 "Hg1 mi
5:00 AM73 °FFog.6 mph94%29.77 "Hg1 mi
4:00 AM73 °FLight rain. Fog.3 mph94%29.74 "Hg1 mi
3:00 AM72 °FSprinkles. Fog.3 mph100%29.74 "Hg1 mi
2:00 AM73 °FSprinkles. Fog.10 mph94%29.74 "Hg1 mi
1:00 AM75 °FFog.13 mph83%29.74 "Hg2 mi
12:00 AM77 °FFog.3 mph94%29.74 "Hg1 mi
11:00 PM
Fri, Jul 3
77 °FFog.6 mph89%29.74 "Hg2 mi
10:00 PM77 °FFog.3 mph94%29.74 "Hg2 mi
9:00 PM77 °FFog.3 mph94%29.74 "Hg1 mi
8:00 PM79 °FFog.1 mph89%29.71 "Hg1 mi
7:00 PM81 °FFog.3 mph84%29.71 "Hg1 mi
Weather by CustomWeather, © 2015

See weather overviewHow to use our weather pages